When you browse on this site, cookies collect data to enhance your experience and personalize the content and advertising you see.
Visit our Privacy Policy to learn more. By continuing to use the site, you agree to this use of cookies and data.
  • In United Kingdom
  • List of Countries
  • For 7 days
  • Water Temperature
  • Weather Map
  • Weather Widgets
  • user-avatar
    Login

    Hourly Weather Buhusi

    Today, 15 September, Sunday

    Time Temperature Precipitation Wind Pressure Humidity
    00:00 +12°C° 0 mm 2 mps 744 mmHg 67%
    01:00 +12°C° 0 mm 2 mps 744 mmHg 69%
    02:00 +10°C° 0 mm 2 mps 744 mmHg 72%
    03:00 +10°C° 0 mm 2 mps 744 mmHg 75%
    04:00 +10°C° 0 mm 1 mps 744 mmHg 77%
    05:00 +10°C° 0 mm 1 mps 744 mmHg 79%
    06:00 +12°C° 0 mm 1 mps 744 mmHg 73%
    07:00 +13°C° 0 mm 1 mps 744 mmHg 66%
    08:00 +14°C° 0 mm 0 mps 744 mmHg 59%
    09:00 +18°C° 0 mm 1 mps 743 mmHg 53%
    10:00 +20°C° 0 mm 1 mps 743 mmHg 47%
    11:00 +22°C° 0 mm 1 mps 743 mmHg 41%
    12:00 +23°C° 0 mm 2 mps 742 mmHg 38%
    13:00 +24°C° 0 mm 2 mps 742 mmHg 35%
    14:00 +26°C° 0 mm 2 mps 742 mmHg 32%
    15:00 +26°C° 0 mm 2 mps 741 mmHg 33%
    16:00 +26°C° 0 mm 2 mps 740 mmHg 33%
    17:00 +25°C° 0 mm 2 mps 740 mmHg 34%
    18:00 +23°C° 0 mm 2 mps 740 mmHg 40%
    19:00 +19°C° 0 mm 2 mps 740 mmHg 47%
    20:00 +17°C° 0 mm 2 mps 740 mmHg 53%
    21:00 +16°C° 0 mm 2 mps 739 mmHg 54%
    22:00 +15°C° 0 mm 2 mps 739 mmHg 55%
    23:00 +14°C° 0 mm 2 mps 738 mmHg 56%

    Tomorrow, 16 September, Monday

    Time Temperature Precipitation Wind Pressure Humidity
    00:00 +14°C° 0 mm 2 mps 738 mmHg 57%
    01:00 +13°C° 0 mm 2 mps 738 mmHg 57%
    02:00 +13°C° 0 mm 1 mps 738 mmHg 57%
    03:00 +13°C° 0 mm 1 mps 738 mmHg 57%
    04:00 +12°C° 0 mm 1 mps 737 mmHg 57%
    05:00 +12°C° 0 mm 1 mps 737 mmHg 58%
    06:00 +14°C° 0 mm 1 mps 737 mmHg 52%
    07:00 +16°C° 0 mm 1 mps 737 mmHg 46%
    08:00 +19°C° 0 mm 1 mps 737 mmHg 40%
    09:00 +21°C° 0 mm 1 mps 737 mmHg 35%
    10:00 +24°C° 0 mm 1 mps 737 mmHg 29%
    11:00 +27°C° 0 mm 1 mps 737 mmHg 24%
    12:00 +28°C° 0 mm 1 mps 736 mmHg 23%
    13:00 +28°C° 0 mm 1 mps 736 mmHg 22%
    14:00 +29°C° 0 mm 1 mps 735 mmHg 21%
    15:00 +29°C° 0 mm 1 mps 735 mmHg 23%
    16:00 +28°C° 0 mm 2 mps 734 mmHg 25%
    17:00 +28°C° 0 mm 2 mps 734 mmHg 27%
    18:00 +25°C° 0 mm 2 mps 734 mmHg 33%
    19:00 +21°C° 0 mm 2 mps 734 mmHg 40%
    20:00 +19°C° 0 mm 2 mps 734 mmHg 46%
    21:00 +19°C° 0 mm 1 mps 734 mmHg 49%
    22:00 +18°C° 0 mm 1 mps 734 mmHg 52%
    23:00 +18°C° 0 mm 1 mps 734 mmHg 55%

    Day after tomorrow, 17 September, Tuesday

    Time Temperature Precipitation Wind Pressure Humidity
    00:00 +16°C° 0 mm 1 mps 733 mmHg 57%
    01:00 +16°C° 0 mm 1 mps 733 mmHg 59%
    02:00 +15°C° 0 mm 1 mps 733 mmHg 61%
    03:00 +15°C° 0 mm 1 mps 733 mmHg 62%
    04:00 +15°C° 0 mm 1 mps 733 mmHg 64%
    05:00 +15°C° 0 mm 1 mps 732 mmHg 65%
    06:00 +18°C° 0 mm 1 mps 732 mmHg 61%
    07:00 +19°C° 0 mm 1 mps 732 mmHg 56%
    08:00 +19°C° 0 mm 2 mps 732 mmHg 52%
    09:00 +21°C° 0 mm 3 mps 732 mmHg 46%
    10:00 +23°C° 0 mm 4 mps 732 mmHg 40%
    11:00 +27°C° 0 mm 5 mps 733 mmHg 34%
    12:00 +25°C° 0 mm 5 mps 732 mmHg 40%
    13:00 +23°C° 0 mm 5 mps 732 mmHg 46%
    14:00 +22°C° 0 mm 5 mps 732 mmHg 52%
    15:00 +22°C° 0 mm 4 mps 731 mmHg 52%
    16:00 +21°C° 0 mm 3 mps 731 mmHg 53%
    17:00 +21°C° 0 mm 2 mps 731 mmHg 53%
    18:00 +19°C° 0 mm 2 mps 731 mmHg 62%
    19:00 +18°C° 0 mm 1 mps 731 mmHg 70%
    20:00 +15°C° 0 mm 1 mps 731 mmHg 79%
    21:00 +14°C° 0 mm 1 mps 731 mmHg 80%
    22:00 +14°C° 0 mm 1 mps 731 mmHg 82%
    23:00 +13°C° 0 mm 1 mps 731 mmHg 83%

    18 September, Wednesday

    Time Temperature Precipitation Wind Pressure Humidity
    00:00 +13°C° 0 mm 1 mps 731 mmHg 84%
    01:00 +13°C° 0 mm 1 mps 731 mmHg 84%
    02:00 +12°C° 0 mm 2 mps 732 mmHg 84%
    03:00 +12°C° 0 mm 1 mps 732 mmHg 85%
    04:00 +11°C° 0 mm 1 mps 732 mmHg 86%
    05:00 +10°C° 0 mm 1 mps 732 mmHg 87%
    06:00 +12°C° 0 mm 1 mps 732 mmHg 78%
    07:00 +13°C° 0 mm 2 mps 733 mmHg 70%
    08:00 +15°C° 0 mm 2 mps 733 mmHg 62%
    09:00 +16°C° 0 mm 2 mps 734 mmHg 55%
    10:00 +17°C° 0 mm 3 mps 734 mmHg 48%
    11:00 +18°C° 0 mm 3 mps 735 mmHg 42%
    12:00 +19°C° 0 mm 3 mps 735 mmHg 40%
    13:00 +19°C° 0 mm 4 mps 734 mmHg 38%
    14:00 +19°C° 0 mm 4 mps 734 mmHg 36%
    15:00 +18°C° 0 mm 3 mps 735 mmHg 36%
    16:00 +18°C° 0 mm 3 mps 735 mmHg 36%
    17:00 +18°C° 0 mm 2 mps 735 mmHg 36%
    18:00 +16°C° 0 mm 2 mps 735 mmHg 41%
    19:00 +14°C° 0 mm 1 mps 736 mmHg 46%
    20:00 +11°C° 0 mm 1 mps 737 mmHg 51%
    21:00 +11°C° 0 mm 1 mps 737 mmHg 53%
    22:00 +9°C° 0 mm 2 mps 737 mmHg 55%
    23:00 +8°C° 0 mm 2 mps 738 mmHg 56%

    19 September, Thursday

    Time Temperature Precipitation Wind Pressure Humidity
    00:00 +8°C° 0 mm 1 mps 738 mmHg 62%
    01:00 +7°C° 0 mm 1 mps 738 mmHg 67%
    02:00 +7°C° 0 mm 1 mps 738 mmHg 72%
    03:00 +6°C° 0 mm 1 mps 738 mmHg 74%
    04:00 +6°C° 0 mm 1 mps 738 mmHg 76%
    05:00 +5°C° 0 mm 1 mps 738 mmHg 78%
    06:00 +6°C° 0 mm 0 mps 738 mmHg 70%
    07:00 +8°C° 0 mm 0 mps 738 mmHg 62%
    08:00 +10°C° 0 mm 0 mps 738 mmHg 54%
    09:00 +13°C° 0 mm 1 mps 738 mmHg 48%
    10:00 +15°C° 0 mm 1 mps 738 mmHg 41%
    11:00 +17°C° 0 mm 2 mps 738 mmHg 34%
    12:00 +17°C° 0 mm 2 mps 738 mmHg 32%
    13:00 +18°C° 0 mm 3 mps 738 mmHg 29%
    14:00 +19°C° 0 mm 3 mps 737 mmHg 26%
    15:00 +18°C° 0 mm 3 mps 737 mmHg 28%
    16:00 +17°C° 0 mm 4 mps 737 mmHg 30%
    17:00 +17°C° 0 mm 4 mps 737 mmHg 31%
    18:00 +14°C° 0 mm 3 mps 738 mmHg 37%
    19:00 +13°C° 0 mm 2 mps 738 mmHg 42%
    20:00 +11°C° 0 mm 1 mps 739 mmHg 47%
    21:00 +11°C° 0 mm 1 mps 739 mmHg 50%
    22:00 +10°C° 0 mm 1 mps 739 mmHg 53%
    23:00 +10°C° 0 mm 1 mps 739 mmHg 56%

    20 September, Friday

    Time Temperature Precipitation Wind Pressure Humidity
    00:00 +9°C° 0 mm 1 mps 739 mmHg 59%
    01:00 +8°C° 0 mm 1 mps 739 mmHg 62%
    02:00 +7°C° 0 mm 1 mps 739 mmHg 65%
    03:00 +7°C° 0 mm 1 mps 739 mmHg 66%
    04:00 +7°C° 0 mm 1 mps 739 mmHg 67%
    05:00 +6°C° 0 mm 1 mps 739 mmHg 68%
    06:00 +8°C° 0 mm 1 mps 739 mmHg 62%
    07:00 +9°C° 0 mm 2 mps 739 mmHg 56%
    08:00 +12°C° 0 mm 2 mps 739 mmHg 50%
    09:00 +12°C° 0.1 mm 3 mps 739 mmHg 49%
    10:00 +13°C° 0.1 mm 4 mps 739 mmHg 47%
    11:00 +14°C° 0.1 mm 5 mps 740 mmHg 46%
    12:00 +13°C° 0.3 mm 5 mps 739 mmHg 46%
    13:00 +13°C° 0.3 mm 5 mps 739 mmHg 45%
    14:00 +12°C° 0.3 mm 5 mps 739 mmHg 45%
    15:00 +12°C° 0.1 mm 4 mps 739 mmHg 47%
    16:00 +11°C° 0.1 mm 4 mps 739 mmHg 48%
    17:00 +11°C° 0.1 mm 4 mps 739 mmHg 50%
    18:00 +9°C° 0 mm 3 mps 740 mmHg 55%
    19:00 +7°C° 0 mm 2 mps 741 mmHg 60%
    20:00 +6°C° 0 mm 2 mps 741 mmHg 65%
    21:00 +5°C° 0 mm 2 mps 742 mmHg 66%
    22:00 +5°C° 0 mm 2 mps 742 mmHg 67%
    23:00 +4°C° 0 mm 2 mps 742 mmHg 68%
    Show more